Location: Amsterdam
(30.7274°N, 84.4357°W)
Time: 22:10:51
(UTC+00:00)

Tiros 1 despin weight - Pass Details

Date: 18 February 2026
Orbit: 556 x 593 km, 48.2° (Epoch: 9 March)

Event Time Altitude Azimuth Distance (km) Brightness Sun altitude
Rises 02:53:41 0° 314° (NW) 2,735 - -44.7°
Reaches altitude 10° 02:55:58 10° 319° (NW) 1,841 - -45.2°
Maximum altitude 03:00:06 57° 38° (NE) 663 - -46.1°
Drops below altitude 10° 03:04:16 10° 118° (ESE) 1,853 - -46.9°
Sets 03:06:34 0° 122° (ESE) 2,753 - -47.4°
